K0WOI Weather Reports


Display with metric or nautical units.
time (UTC)temp
F
wind
direction
speed
MPH
gust
MPH
rain 1hr
in
rain 24hr
in
rain mn
in
humidity
%
barometer
mb
20260902191237 93 87 3.0 5.0 0.00 0.00 0.00 55 1011.7
20260902190732 93 85 1.0 1.0 0.00 0.00 0.00 56 1011.7
20260902190231 93 85 2.0 2.0 0.00 0.00 0.00 59 1011.7
20260902185727 92 85 1.0 2.0 0.00 0.00 0.00 60 1011.8
20260902185223 92 86 1.0 2.0 0.00 0.00 0.00 57 1011.9
20260902184718 91 85 0.0 1.0 0.00 0.00 0.00 57 1011.9
20260902184214 91 84 2.0 3.0 0.00 0.00 0.00 59 1012.2
20260902183710 91 84 0.0 0.0 0.00 0.00 0.00 61 1011.9
20260902183206 90 84 1.0 1.0 0.00 0.00 0.00 59 1012.2
20260902182702 91 84 1.0 1.0 0.00 0.00 0.00 63 1012.0
20260902182158 91 84 1.0 1.0 0.00 0.00 0.00 61 1012.1
20260902181654 91 86 4.0 5.0 0.00 0.00 0.00 59 1012.3
20260902181153 90 92 3.0 5.0 0.00 0.00 0.00 60 1012.3
20260902180648 89 84 0.0 0.0 0.00 0.00 0.00 61 1012.2
20260902180144 90 86 2.0 3.0 0.00 0.00 0.00 62 1012.2
20260902175643 89 84 3.0 3.0 0.00 0.00 0.00 64 1012.4
20260902175140 89 84 1.0 2.0 0.00 0.00 0.00 60 1012.6
20260902174636 89 85 3.0 5.0 0.00 0.00 0.00 59 1012.4
20260902174131 88 84 2.0 2.0 0.00 0.00 0.00 64 1012.5
20260902173626 89 85 3.0 3.0 0.00 0.00 0.00 65 1012.5
20260902173121 88 85 3.0 3.0 0.00 0.00 0.00 63 1012.6
20260902172615 88 84 2.0 2.0 0.00 0.00 0.00 63 1012.5
20260902172109 88 84 0.0 1.0 0.00 0.00 0.00 62 1012.8
20260902171605 88 83 1.0 1.0 0.00 0.00 0.00 62 1012.9
20260902171101 88 83 1.0 1.0 0.00 0.00 0.00 63 1012.7
20260902170556 88 83 0.0 0.0 0.00 0.00 0.00 62 1013.1
20260902170052 87 82 1.0 1.0 0.00 0.00 0.00 67 1012.8
20260902165551 88 83 1.0 2.0 0.00 0.00 0.00 66 1012.7
20260902165045 88 83 3.0 5.0 0.00 0.00 0.00 62 1012.8
20260902164541 88 83 1.0 1.0 0.00 0.00 0.00 62 1013.1
20260902164039 88 82 1.0 1.0 0.00 0.00 0.00 66 1012.9
20260902163536 87 82 1.0 1.0 0.00 0.00 0.00 63 1012.8
20260902163033 87 83 3.0 3.0 0.00 0.00 0.00 63 1012.7
20260902162528 86 83 0.0 1.0 0.00 0.00 0.00 65 1013.0
20260902162023 86 82 1.0 1.0 0.00 0.00 0.00 65 1012.7
20260902161518 86 82 0.0 0.0 0.00 0.00 0.00 66 1012.8
20260902161014 86 82 1.0 1.0 0.00 0.00 0.00 70 1012.8
20260902160510 86 82 3.0 3.0 0.00 0.00 0.00 68 1012.8
20260902160010 85 82 0.0 1.0 0.00 0.00 0.00 72 1012.8
20260902155503 85 82 0.0 1.0 0.00 0.00 0.00 71 1012.8
20260902155001 85 82 1.0 3.0 0.00 0.00 0.00 68 1012.9
20260902154457 85 82 1.0 2.0 0.00 0.00 0.00 69 1012.6
20260902153952 84 82 1.0 1.0 0.00 0.00 0.00 70 1012.8
20260902153450 84 82 1.0 1.0 0.00 0.00 0.00 71 1013.0
20260902152946 84 82 0.0 1.0 0.00 0.00 0.00 72 1013.0
20260902152442 83 82 0.0 1.0 0.00 0.00 0.00 75 1012.9
20260902151937 83 82 0.0 1.0 0.00 0.00 0.00 75 1013.0
20260902151433 82 82 1.0 1.0 0.00 0.00 0.00 75 1012.9
20260902150927 82 82 1.0 1.0 0.00 0.00 0.00 75 1012.8
20260902150423 82 82 1.0 1.0 0.00 0.00 0.00 77 1012.8
20260902145922 83 82 1.0 1.0 0.00 0.00 0.00 75 1012.7
20260902145418 82 82 0.0 1.0 0.00 0.00 0.00 76 1012.9
20260902144912 81 82 0.0 0.0 0.00 0.00 0.00 76 1012.7
20260902144408 80 82 1.0 1.0 0.00 0.00 0.00 78 1012.9
20260902143903 79 81 0.0 1.0 0.00 0.00 0.00 82 1013.0
20260902143358 78 81 0.0 1.0 0.00 0.00 0.00 82 1012.9
20260902142853 78 81 0.0 0.0 0.00 0.00 0.00 82 1013.0
20260902142349 77 81 0.0 1.0 0.00 0.00 0.00 83 1013.0
20260902141844 77 81 0.0 0.0 0.00 0.00 0.00 86 1013.0
20260902141340 76 81 0.0 0.0 0.00 0.00 0.00 87 1013.0
20260902140839 76 81 0.0 0.0 0.00 0.00 0.00 88 1013.0
20260902140335 75 80 1.0 1.0 0.00 0.00 0.00 90 1013.1
20260902135834 75 80 1.0 1.0 0.00 0.00 0.00 91 1013.2
20260902135330 74 80 0.0 0.0 0.00 0.00 0.00 92 1013.1
20260902134829 74 80 0.0 0.0 0.00 0.00 0.00 92 1012.8
20260902134325 73 80 0.0 0.0 0.00 0.00 0.00 92 1013.0
20260902133820 73 80 0.0 0.0 0.00 0.00 0.00 93 1013.1
20260902133319 73 80 1.0 1.0 0.00 0.00 0.00 93 1013.2
20260902132815 72 80 0.0 0.0 0.00 0.00 0.00 94 1013.0
20260902132310 72 80 0.0 1.0 0.00 0.00 0.00 94 1013.5
20260902131805 72 80 1.0 1.0 0.00 0.00 0.00 95 1013.0
20260902131302 72 80 0.0 0.0 0.00 0.00 0.00 95 1013.3
20260902130801 72 80 0.0 0.0 0.00 0.00 0.00 95 1013.4
20260902130257 71 80 0.0 1.0 0.00 0.00 0.00 96 1013.3
20260902125752 71 79 1.0 1.0 0.00 0.00 0.00 96 1013.5
20260902125248 71 80 0.0 0.0 0.00 0.00 0.00 97 1013.6
20260902124744 71 79 0.0 0.0 0.00 0.00 0.00 97 1013.5
20260902124239 70 80 0.0 0.0 0.00 0.00 0.00 97 1013.5
20260902123735 70 80 0.0 0.0 0.00 0.00 0.00 98 1013.5
20260902123231 70 80 1.0 2.0 0.00 0.00 0.00 98 1013.5
20260902122729 70 79 0.0 0.0 0.00 0.00 0.00 98 1013.4
20260902122226 70 80 0.0 1.0 0.00 0.00 0.00 98 1013.3
20260902121725 70 80 0.0 0.0 0.00 0.00 0.00 98 1013.4
20260902121220 70 80 0.0 0.0 0.00 0.00 0.00 98 1013.1
20260902120716 69 81 0.0 0.0 0.00 0.00 0.00 98 1013.2
20260902120213 70 80 0.0 0.0 0.00 0.00 0.00 98 1013.6
20260902115712 70 79 1.0 1.0 0.00 0.00 0.00 98 1013.6
20260902115209 70 80 0.0 0.0 0.00 0.00 0.00 97 1013.3
20260902114704 70 80 0.0 0.0 0.00 0.00 0.00 97 1013.3
20260902114159 70 80 0.0 0.0 0.00 0.00 0.00 97 1013.5
20260902113655 70 80 0.0 0.0 0.00 0.00 0.00 97 1013.4
20260902113149 70 81 0.0 0.0 0.00 0.00 0.00 96 1013.6
20260902112644 70 80 0.0 0.0 0.00 0.00 0.00 96 1013.5
20260902112141 70 80 0.0 1.0 0.00 0.00 0.00 96 1013.4
20260902111636 71 80 0.0 0.0 0.00 0.00 0.00 96 1013.2
20260902111132 71 81 0.0 0.0 0.00 0.00 0.00 95 1013.5
20260902110627 71 80 0.0 0.0 0.00 0.00 0.00 95 1013.4
20260902110124 71 80 1.0 1.0 0.00 0.00 0.00 95 1013.2
20260902105623 71 81 0.0 0.0 0.00 0.00 0.00 94 1013.2
20260902105118 71 81 0.0 0.0 0.00 0.00 0.00 93 1013.3
20260902104614 72 81 0.0 0.0 0.00 0.00 0.00 93 1013.2
20260902104109 72 81 0.0 0.0 0.00 0.00 0.00 93 1013.4
20260902103608 72 81 0.0 0.0 0.00 0.00 0.00 92 1013.5
20260902103104 72 81 0.0 0.0 0.00 0.00 0.00 92 1013.3
20260902102555 73 81 1.0 1.0 0.00 0.00 0.00 91 1013.6
20260902102051 73 81 1.0 1.0 0.00 0.00 0.00 91 1013.7
20260902101547 73 80 1.0 1.0 0.00 0.00 0.00 90 1013.8
20260902101045 73 80 0.0 1.0 0.00 0.00 0.00 89 1013.8
20260902100545 73 80 0.0 0.0 0.00 0.00 0.00 87 1013.7
20260902100040 74 80 0.0 1.0 0.00 0.00 0.00 86 1013.8
20260902095540 74 79 1.0 1.0 0.00 0.00 0.00 84 1013.8
20260902095038 74 79 1.0 1.0 0.00 0.00 0.00 84 1014.0
20260902094535 75 80 1.0 1.0 0.00 0.00 0.00 84 1013.6
20260902094030 75 79 1.0 2.0 0.00 0.00 0.00 82 1013.7
20260902093525 75 79 0.0 1.0 0.00 0.00 0.00 82 1013.7
20260902093025 75 79 0.0 0.0 0.00 0.00 0.00 81 1013.3
20260902092520 75 79 1.0 1.0 0.00 0.00 0.00 80 1013.4
20260902092015 76 79 1.0 1.0 0.00 0.00 0.00 79 1013.6
20260902091510 76 79 1.0 1.0 0.00 0.00 0.00 78 1013.3
20260902091006 77 77 1.0 2.0 0.00 0.00 0.00 77 1013.4
20260902090501 77 78 4.0 6.0 0.00 0.00 0.00 76 1013.6
20260902090000 75 85 3.0 5.0 0.00 0.00 0.00 75 1012.6
20260902085455 75 79 2.0 2.0 0.00 0.00 0.00 81 1013.0
20260902084950 76 81 0.0 0.0 0.00 0.00 0.00 79 1011.8
20260902084447 76 81 1.0 1.0 0.00 0.00 0.00 79 1011.7
20260902083943 75 82 2.0 3.0 0.00 0.00 0.00 79 1011.6
20260902083442 76 82 0.0 1.0 0.00 0.00 0.00 80 1011.8
20260902082937 76 82 1.0 2.0 0.00 0.00 0.00 79 1011.8
20260902082433 76 81 1.0 1.0 0.00 0.00 0.00 79 1011.9
20260902081929 76 81 0.0 0.0 0.00 0.00 0.00 79 1011.7
20260902081426 76 81 0.0 1.0 0.00 0.00 0.00 79 1011.7
20260902080920 76 82 0.0 0.0 0.00 0.00 0.00 78 1011.9
20260902080416 76 82 0.0 0.0 0.00 0.00 0.00 78 1011.8
20260902075915 77 82 1.0 1.0 0.00 0.00 0.00 77 1011.9
20260902075412 77 82 2.0 2.0 0.00 0.00 0.00 77 1011.9
20260902074907 77 82 1.0 1.0 0.00 0.00 0.00 77 1011.9
20260902074403 77 82 1.0 1.0 0.00 0.00 0.00 77 1011.9
20260902073857 77 82 1.0 1.0 0.00 0.00 0.00 78 1012.0
20260902073354 77 81 0.0 1.0 0.00 0.00 0.00 78 1012.0
20260902072849 77 81 1.0 1.0 0.00 0.00 0.00 77 1011.9
20260902072345 77 81 0.0 1.0 0.00 0.00 0.00 77 1011.5
20260902071842 77 81 0.0 1.0 0.00 0.00 0.00 77 1011.7
20260902071341 77 82 2.0 3.0 0.00 0.00 0.00 77 1011.7
20260902070837 77 81 1.0 1.0 0.00 0.00 0.00 77 1011.6
20260902070332 77 82 2.0 3.0 0.00 0.00 0.00 77 1011.4
20260902065830 77 82 1.0 2.0 0.00 0.00 0.00 78 1011.4
20260902065326 77 82 1.0 1.0 0.00 0.00 0.00 78 1011.4
20260902064821 77 81 1.0 1.0 0.00 0.00 0.00 77 1011.2
20260902064317 77 81 1.0 1.0 0.00 0.00 0.00 78 1011.2
20260902063812 77 82 1.0 2.0 0.00 0.00 0.00 78 1011.2
20260902063307 77 81 0.0 1.0 0.00 0.00 0.00 78 1011.0
20260902062801 77 81 0.0 1.0 0.00 0.00 0.00 79 1011.0
20260902062256 77 81 1.0 1.0 0.00 0.00 0.00 79 1011.2
20260902061755 77 81 1.0 1.0 0.00 0.00 0.00 79 1011.2
20260902061250 77 81 1.0 1.0 0.00 0.00 0.00 79 1011.0
20260902060748 77 81 0.0 1.0 0.00 0.00 0.00 79 1011.2
20260902060242 77 81 0.0 0.0 0.00 0.00 0.00 79 1011.2
20260902055738 78 81 1.0 1.0 0.00 0.00 0.00 79 1011.3
20260902055234 78 81 0.0 1.0 0.00 0.00 0.00 79 1011.2
20260902054729 77 81 1.0 1.0 0.00 0.00 0.00 79 1011.2
20260902054225 78 81 1.0 1.0 0.00 0.00 0.00 80 1011.5
20260902053720 78 81 2.0 2.0 0.00 0.00 0.00 79 1011.6
20260902053220 78 82 2.0 3.0 0.00 0.00 0.00 79 1011.6
20260902052719 78 82 2.0 2.0 0.00 0.00 0.00 80 1011.9
20260902052215 78 81 1.0 1.0 0.00 0.00 0.00 80 1011.7
20260902051714 78 81 1.0 1.0 0.00 0.00 0.00 79 1011.7
20260902051209 78 81 1.0 1.0 0.00 0.00 0.00 80 1011.8
20260902050703 78 81 1.0 1.0 0.00 0.00 0.00 80 1011.8
20260902050159 78 81 0.0 0.0 0.00 0.00 0.00 80 1011.7
20260902045653 78 81 1.0 1.0 0.00 0.00 0.00 80 1011.8
20260902045149 78 81 0.0 1.0 0.00 0.00 0.00 81 1011.8
20260902044643 78 81 1.0 1.0 0.00 0.00 0.00 81 1011.9
20260902044140 78 81 1.0 1.0 0.00 0.00 0.00 81 1011.7
20260902043635 78 81 0.0 0.0 0.00 0.00 0.00 81 1011.6
20260902043130 78 81 2.0 5.0 0.00 0.00 0.00 81 1011.9
20260902042629 78 81 1.0 1.0 0.00 0.00 0.00 81 1011.7
20260902042125 78 81 0.0 0.0 0.00 0.00 0.00 82 1011.7
20260902041625 78 81 0.0 0.0 0.00 0.00 0.00 82 1011.7
20260902041119 79 81 0.0 0.0 0.00 0.00 0.00 82 1011.8
20260902040619 79 81 0.0 0.0 0.00 0.00 0.00 82 1011.6
20260902040114 79 81 0.0 0.0 0.00 0.00 0.00 82 1011.5
20260902035612 79 81 0.0 0.0 0.00 0.00 0.00 82 1011.7
20260902035108 79 81 0.0 1.0 0.00 0.00 0.00 82 1011.9
20260902034607 79 81 0.0 0.0 0.00 0.00 0.00 81 1011.7
20260902034101 80 81 1.0 1.0 0.00 0.00 0.00 81 1012.0
20260902033600 80 81 0.0 1.0 0.00 0.00 0.00 80 1011.9
20260902033055 80 81 0.0 0.0 0.00 0.00 0.00 80 1012.0
20260902032554 80 81 0.0 0.0 0.00 0.00 0.00 80 1011.8
20260902032049 80 81 0.0 0.0 0.00 0.00 0.00 79 1011.7
20260902031544 80 81 1.0 1.0 0.00 0.00 0.00 79 1012.1
20260902031040 80 81 0.0 0.0 0.00 0.00 0.00 79 1011.9
20260902030534 81 81 1.0 1.0 0.00 0.00 0.00 79 1011.9
20260902030034 81 81 0.0 1.0 0.00 0.00 0.00 79 1011.6
20260902025529 81 81 0.0 1.0 0.00 0.00 0.00 79 1011.7
20260902025024 81 81 1.0 1.0 0.00 0.00 0.00 80 1011.4
20260902024520 81 81 0.0 1.0 0.00 0.00 0.00 80 1011.3
20260902024019 81 81 0.0 1.0 0.00 0.00 0.00 80 1011.5
20260902023515 81 81 0.0 1.0 0.00 0.00 0.00 80 1011.4
20260902023016 81 81 0.0 1.0 0.00 0.00 0.00 80 1011.2
20260902022510 81 81 0.0 0.0 0.00 0.00 0.00 80 1011.2
20260902022006 81 81 0.0 0.0 0.00 0.00 0.00 79 1011.3
20260902021501 81 81 0.0 0.0 0.00 0.00 0.00 79 1011.3
20260902020956 81 81 0.0 0.0 0.00 0.00 0.00 80 1011.4
20260902020452 81 81 0.0 0.0 0.00 0.00 0.00 81 1011.2
20260902015947 81 81 0.0 0.0 0.00 0.00 0.00 81 1011.0
20260902015443 80 81 1.0 1.0 0.00 0.00 0.00 82 1010.9
20260902014938 79 81 1.0 1.0 0.00 0.00 0.00 87 1011.0
20260902014435 79 81 0.0 0.0 0.00 0.00 0.00 89 1010.9
20260902013934 80 81 0.0 0.0 0.00 0.00 0.00 89 1010.6
20260902013430 80 81 0.0 0.0 0.00 0.00 0.00 88 1010.6
20260902012925 81 81 0.0 0.0 0.00 0.00 0.00 87 1010.8
20260902012420 82 81 0.0 0.0 0.00 0.00 0.00 85 1010.7
20260902011916 82 81 0.0 0.0 0.00 0.00 0.00 83 1010.7
20260902011411 83 81 0.0 0.0 0.00 0.00 0.00 81 1010.7
20260902010910 82 81 0.0 0.0 0.00 0.00 0.00 78 1010.6
20260902010405 82 81 0.0 0.0 0.00 0.00 0.00 83 1010.6
20260902005904 83 81 0.0 0.0 0.00 0.00 0.00 80 1010.5
20260902005359 84 82 0.0 0.0 0.00 0.00 0.00 77 1010.7
20260902004854 84 82 0.0 0.0 0.00 0.00 0.00 75 1010.6
20260902004354 85 82 0.0 0.0 0.00 0.00 0.00 74 1010.5
20260902003849 85 82 0.0 0.0 0.00 0.00 0.00 74 1010.6
20260902003344 86 82 0.0 0.0 0.00 0.00 0.00 73 1010.5
20260902002840 86 82 0.0 0.0 0.00 0.00 0.00 73 1010.5
20260902002339 86 82 0.0 0.0 0.00 0.00 0.00 72 1010.6
20260902001835 87 82 0.0 0.0 0.00 0.00 0.00 73 1010.5
20260902001329 87 82 0.0 0.0 0.00 0.00 0.00 73 1010.7
20260902000824 88 82 0.0 0.0 0.00 0.00 0.00 72 1010.7
20260902000322 89 82 0.0 0.0 0.00 0.00 0.00 70 1010.8
20260901235814 89 82 0.0 0.0 0.00 0.00 0.00 69 1010.7
20260901235308 89 83 0.0 0.0 0.00 0.00 0.00 68 1010.6
20260901234808 90 83 0.0 0.0 0.00 0.00 0.00 67 1010.8
20260901234303 90 83 0.0 1.0 0.00 0.00 0.00 66 1010.6
20260901233758 91 83 1.0 1.0 0.00 0.00 0.00 65 1010.7
20260901233253 91 83 0.0 1.0 0.00 0.00 0.00 65 1010.8
20260901232749 91 83 1.0 1.0 0.00 0.00 0.00 64 1010.8
20260901232244 91 83 1.0 1.0 0.00 0.00 0.00 63 1010.7
20260901231740 92 83 2.0 3.0 0.00 0.00 0.00 63 1010.8
20260901231236 92 83 0.0 1.0 0.00 0.00 0.00 64 1010.9
20260901230731 93 83 0.0 1.0 0.00 0.00 0.00 62 1011.0
20260901230225 94 83 1.0 1.0 0.00 0.00 0.00 63 1011.0
20260901225720 94 83 0.0 1.0 0.00 0.00 0.00 59 1011.0
20260901225215 94 83 1.0 1.0 0.00 0.00 0.00 60 1011.0
20260901224711 94 83 1.0 1.0 0.00 0.00 0.00 60 1010.7
20260901224207 95 83 0.0 0.0 0.00 0.00 0.00 59 1011.0
20260901223703 95 83 1.0 2.0 0.00 0.00 0.00 58 1010.7
20260901223158 94 83 1.0 1.0 0.00 0.00 0.00 58 1010.8
20260901222654 95 83 0.0 0.0 0.00 0.00 0.00 62 1010.8
20260901222150 95 83 1.0 1.0 0.00 0.00 0.00 58 1010.9
20260901221645 95 83 2.0 2.0 0.00 0.00 0.00 56 1011.0
20260901221141 94 84 2.0 2.0 0.00 0.00 0.00 54 1011.2
20260901220639 95 83 3.0 5.0 0.00 0.00 0.00 54 1010.8
20260901220139 94 84 2.0 2.0 0.00 0.00 0.00 59 1011.0
20260901215637 95 84 2.0 2.0 0.00 0.00 0.00 57 1011.3
20260901215132 96 83 0.0 1.0 0.00 0.00 0.00 57 1011.2
20260901214630 96 84 1.0 2.0 0.00 0.00 0.00 54 1011.2
20260901214124 95 83 1.0 1.0 0.00 0.00 0.00 55 1011.4
20260901213619 95 84 1.0 1.0 0.00 0.00 0.00 56 1011.3
20260901213114 95 84 1.0 1.0 0.00 0.00 0.00 55 1011.6
20260901212613 95 84 1.0 2.0 0.00 0.00 0.00 54 1011.2
20260901212110 96 84 3.0 3.0 0.00 0.00 0.00 51 1011.5
20260901211604 95 84 1.0 2.0 0.00 0.00 0.00 57 1011.5
20260901211101 96 84 2.0 2.0 0.00 0.00 0.00 54 1011.6
20260901210556 96 84 1.0 1.0 0.00 0.00 0.00 55 1011.6
20260901210053 95 84 0.0 1.0 0.00 0.00 0.00 57 1011.5
20260901205548 95 84 2.0 2.0 0.00 0.00 0.00 56 1011.7
20260901205047 95 84 0.0 1.0 0.00 0.00 0.00 57 1011.8
20260901204544 95 84 1.0 1.0 0.00 0.00 0.00 54 1011.9
20260901204039 95 84 2.0 2.0 0.00 0.00 0.00 52 1011.8
20260901203539 96 84 1.0 1.0 0.00 0.00 0.00 56 1011.7
20260901203034 95 84 0.0 1.0 0.00 0.00 0.00 52 1011.9
20260901202528 95 84 0.0 1.0 0.00 0.00 0.00 56 1011.9
20260901202025 95 84 1.0 1.0 0.00 0.00 0.00 54 1011.9
20260901201520 95 84 1.0 1.0 0.00 0.00 0.00 55 1012.1
20260901201015 94 84 3.0 3.0 0.00 0.00 0.00 57 1012.1
20260901200514 94 84 2.0 2.0 0.00 0.00 0.00 57 1012.0
20260901200009 93 83 1.0 1.0 0.00 0.00 0.00 59 1012.1
20260901195507 94 84 2.0 2.0 0.00 0.00 0.00 56 1012.3
20260901195006 93 84 2.0 2.0 0.00 0.00 0.00 54 1012.2
20260901194501 93 83 1.0 1.0 0.00 0.00 0.00 59 1012.3
20260901193957 93 84 0.0 1.0 0.00 0.00 0.00 55 1012.5
20260901193456 93 84 1.0 2.0 0.00 0.00 0.00 56 1012.4
20260901192956 93 84 2.0 2.0 0.00 0.00 0.00 56 1012.4
20260901192452 93 84 1.0 1.0 0.00 0.00 0.00 58 1012.6
20260901191948 93 84 2.0 3.0 0.00 0.00 0.00 56 1012.7